Location: Bartlett
(35.2045°N, 89.8740°W)
Time: 16:31:36
(UTC+00:00)

Transit 4A - Pass Details

Date: 18 December 2025
Orbit: 867 x 974 km, 66.8° (Epoch: 14 January)

Event Time Altitude Azimuth Distance (km) Brightness Sun altitude
Rises 07:55:39 0° 344° (NNW) 3,530 - -61.5°
Reaches altitude 10° 07:58:33 10° 356° (N) 2,604 - -61.0°
Maximum altitude 08:03:38 27° 53° (NE) 1,698 - -60.0°
Drops below altitude 10° 08:08:48 10° 110° (ESE) 2,657 - -58.9°
Sets 08:11:46 0° 122° (ESE) 3,615 - -58.4°
